FW2734 Weather Reports


time (UTC)temp
C
wind
direction
speed
KPH
gust
KPH
rain 1hr
cm
rain 24hr
cm
rain mn
cm
humidity
%
barometer
mb
20260506051050 8 360 1.6 6.4 0.00 2.82 1.60 94 1004.4
20260506050550 8 51 1.6 8.0 0.00 2.82 1.60 93 1004.4
20260506045052 8 6 4.8 9.7 0.03 2.82 1.60 94 1004.4
20260506044602 8 356 4.8 9.7 0.03 2.82 1.60 94 1004.4
20260506044048 8 1 4.8 11.3 0.03 2.82 1.60 94 1004.4
20260506043551 8 13 4.8 11.3 0.05 2.82 1.60 94 1004.4
20260506043059 8 8 3.2 8.0 0.05 2.82 1.60 94 1004.3
20260506042551 8 10 3.2 8.0 0.08 2.82 1.60 94 1004.5
20260506042050 8 34 3.2 6.4 0.08 2.82 1.60 94 1004.5
20260506041619 8 296 1.6 6.4 0.10 2.82 1.60 94 1004.5
20260506041048 8 297 1.6 6.4 0.13 2.79 1.57 93 1004.5
20260506040552 8 322 1.6 8.0 0.13 2.79 1.57 93 1004.5
20260506040059 8 300 3.2 8.0 0.15 2.79 1.57 93 1004.5
20260506035553 8 262 1.6 8.0 0.18 2.79 1.57 93 1004.5
20260506035051 8 0 3.2 8.0 0.18 2.77 1.57 93 1004.6
20260506034559 8 264 3.2 6.4 0.18 2.77 1.57 93 1004.6
20260506034050 9 0 1.6 6.4 0.18 2.77 1.57 94 1004.6
20260506033550 9 234 0.0 4.8 0.18 2.74 1.55 94 1004.6
20260506033055 9 0 0.0 3.2 0.23 2.74 1.55 94 1004.5
20260506032552 9 0 0.0 3.2 0.20 2.72 1.52 94 1004.6
20260506032053 9 203 0.0 4.8 0.20 2.72 1.50 94 1004.6
20260506031550 9 255 1.6 4.8 0.18 2.69 1.50 93 1004.6
20260506031049 9 0 1.6 4.8 0.15 2.64 1.45 94 1004.6
20260506030551 9 0 0.0 6.4 0.15 2.62 1.42 94 1004.6
20260506030059 9 283 1.6 6.4 0.18 2.62 1.42 94 1004.6
20260506025550 9 339 3.2 6.4 0.15 2.62 1.40 93 1004.8
20260506025051 9 281 1.6 8.0 0.13 2.62 1.40 93 1004.6
20260506024605 9 0 1.6 8.0 0.10 2.59 1.37 93 1004.7
20260506024048 9 0 0.0 4.8 0.10 2.59 1.37 94 1004.7
20260506023548 9 0 0.0 11.3 0.08 2.57 1.35 94 1004.6
20260506023056 9 0 0.0 11.3 0.08 2.54 1.30 94 1004.6
20260506022550 9 333 3.2 11.3 0.08 2.54 1.30 93 1004.6
20260506022050 9 0 1.6 9.7 0.05 2.51 1.30 93 1004.6
20260506021557 9 309 4.8 9.7 0.08 2.51 1.30 93 1004.6
20260506021051 9 47 3.2 9.7 0.08 2.51 1.30 93 1004.6
20260506020551 9 27 3.2 9.7 0.08 2.49 1.27 93 1004.6
20260506020108 9 23 1.6 12.9 0.08 2.46 1.24 93 1004.6
20260506015551 9 293 6.4 16.1 0.10 2.46 1.24 93 1004.6
20260506015051 9 338 4.8 16.1 0.13 2.46 1.24 93 1004.6
20260506014612 9 41 4.8 12.9 0.18 2.46 1.24 93 1004.7
20260506014048 9 49 6.4 12.9 0.20 2.46 1.24 93 1004.6
20260506013551 9 15 3.2 12.9 0.30 2.46 1.24 93 1004.7
20260506013059 9 0 1.6 9.7 0.33 2.44 1.22 93 1004.8
20260506012548 9 351 1.6 8.0 0.36 2.44 1.22 93 1004.8
20260506012048 10 333 3.2 8.0 0.36 2.44 1.22 93 1004.8
20260506011623 10 356 3.2 11.3 0.33 2.44 1.22 93 1004.8
20260506011048 10 332 4.8 11.3 0.30 2.41 1.19 93 1004.8
20260506010553 10 320 0.0 8.0 0.28 2.39 1.17 93 1004.8
20260506010053 10 9 3.2 8.0 0.25 2.34 1.12 93 1004.8
20260506005550 10 356 3.2 9.7 0.28 2.34 1.12 93 1004.9
20260506005050 10 3 4.8 9.7 0.25 2.34 1.12 93 1004.9
20260506004608 10 350 4.8 9.7 0.20 2.29 1.07 93 1004.9
20260506004050 10 318 3.2 8.0 0.20 2.24 1.02 93 1005.0
20260506003550 10 347 4.8 8.0 0.15 2.13 0.91 93 1005.1
20260506003100 10 24 3.2 8.0 0.18 2.11 0.89 93 1005.1
20260506002553 10 43 1.6 8.0 0.20 2.08 0.86 93 1005.1
20260506002050 10 39 3.2 8.0 0.25 2.08 0.86 93 1005.1
20260506001603 10 51 1.6 6.4 0.28 2.08 0.86 93 1005.2
20260506001050 10 63 1.6 8.0 0.28 2.08 0.86 93 1005.2
20260506000553 10 4 3.2 9.7 0.33 2.08 0.86 93 1005.2
20260506000121 10 63 3.2 9.7 0.36 2.08 0.86 93 1005.3
20260505235552 10 34 4.8 9.7 0.36 2.06 0.84 93 1005.3
20260505235050 10 56 3.2 8.0 0.38 2.06 0.84 93 1005.4
20260505234555 10 19 3.2 11.3 0.43 2.06 0.84 93 1005.4
20260505234051 10 60 6.4 11.3 0.43 2.03 0.81 93 1005.5
20260505233550 10 38 3.2 8.0 0.38 1.96 0.74 93 1005.5
20260505233100 10 47 3.2 8.0 0.38 1.93 0.71 93 1005.5
20260505232548 10 4 3.2 8.0 0.36 1.88 0.64 93 1005.6
20260505232053 10 16 3.2 8.0 0.38 1.83 0.61 93 1005.7
20260505231613 10 9 1.6 8.0 0.46 1.80 0.58 93 1005.7
20260505231052 10 70 3.2 8.0 0.48 1.78 0.56 93 1005.7
20260505230548 10 8 3.2 6.4 0.48 1.75 0.53 93 1005.7
20260505225554 10 11 1.6 6.4 0.48 1.68 0.46 93 1005.8
20260505225053 10 53 1.6 6.4 0.46 1.68 0.46 93 1005.8
20260505224557 10 42 1.6 6.4 0.46 1.63 0.41 93 1005.8
20260505224052 10 44 1.6 6.4 0.41 1.57 0.36 93 1005.9
20260505223556 10 20 0.0 6.4 0.36 1.55 0.33 93 1006.0
20260505223050 10 356 1.6 6.4 0.36 1.52 0.30 93 1005.9
20260505222552 10 30 0.0 6.4 0.33 1.50 0.28 93 1006.0
20260505222053 10 24 1.6 6.4 0.25 1.40 0.18 93 1006.0
20260505221558 10 46 0.0 6.4 0.20 1.35 0.13 93 1006.0
20260505221052 10 3 1.6 6.4 0.15 1.27 0.05 93 1006.0
20260505220552 10 20 1.6 6.4 0.13 1.24 0.03 93 1006.0
20260505220052 10 49 1.6 4.8 0.13 1.22 0.00 93 1006.0
20260505215552 11 55 1.6 4.8 0.10 1.22 1.19 93 1006.0
20260505215053 11 46 1.6 4.8 0.13 1.22 1.19 93 1006.1
20260505214552 11 50 0.0 3.2 0.13 1.19 1.17 93 1006.1
20260505214053 11 0 0.0 3.2 0.13 1.19 1.17 93 1006.1
20260505213552 11 0 0.0 3.2 0.13 1.19 1.17 93 1006.2
20260505213053 11 0 0.0 3.2 0.13 1.17 1.14 93 1006.1
20260505212554 11 0 0.0 3.2 0.15 1.17 1.14 93 1006.1
20260505212053 11 0 0.0 3.2 0.15 1.17 1.14 93 1006.2
20260505211550 11 0 0.0 4.8 0.15 1.14 1.12 93 1006.3
20260505211053 11 0 0.0 4.8 0.15 1.12 1.12 93 1006.4
20260505210552 11 83 0.0 4.8 0.18 1.12 1.12 93 1006.4
20260505210054 11 0 0.0 6.4 0.18 1.12 1.09 93 1006.4
20260505205553 11 45 1.6 6.4 0.15 1.07 1.04 93 1006.4
20260505205053 11 54 3.2 6.4 0.15 1.07 1.04 93 1006.5
20260505204559 11 46 0.0 3.2 0.15 1.04 1.02 93 1006.5
20260505204052 11 32 0.0 3.2 0.18 1.04 1.02 93 1006.5
20260505203552 11 57 0.0 1.6 0.18 1.04 1.02 93 1006.5
20260505203100 11 0 0.0 3.2 0.18 1.02 1.02 93 1006.5
20260505202552 11 0 0.0 4.8 0.18 1.02 0.99 92 1006.5
20260505202054 11 0 0.0 6.4 0.20 1.02 0.99 92 1006.6
20260505201551 11 103 3.2 6.4 0.20 0.99 0.97 92 1006.5
20260505201052 11 133 1.6 4.8 0.20 0.97 0.94 92 1006.6
20260505200552 11 0 0.0 4.8 0.20 0.94 0.94 92 1006.5
20260505200054 11 138 0.0 3.2 0.20 0.94 0.91 92 1006.5
20260505195552 11 87 1.6 4.8 0.18 0.91 0.89 93 1006.5
20260505195052 11 0 1.6 4.8 0.20 0.91 0.89 92 1006.5
20260505194606 11 71 1.6 4.8 0.18 0.89 0.86 92 1006.4
20260505194052 11 89 1.6 4.8 0.18 0.86 0.84 92 1006.5
20260505193552 11 69 1.6 4.8 0.18 0.84 0.84 92 1006.5
20260505193054 11 59 0.0 6.4 0.18 0.84 0.81 92 1006.4
20260505192552 11 40 1.6 6.4 0.18 0.81 0.79 92 1006.4
20260505192052 11 49 1.6 6.4 0.18 0.79 0.76 92 1006.4
20260505191605 11 53 3.2 6.4 0.18 0.76 0.74 92 1006.4
20260505191055 11 80 1.6 4.8 0.15 0.74 0.74 92 1006.4
20260505190552 11 65 0.0 4.8 0.13 0.74 0.71 92 1006.4
20260505190055 11 0 1.6 4.8 0.10 0.71 0.69 92 1006.4
20260505185552 11 66 0.0 4.8 0.13 0.71 0.69 92 1006.4
20260505185052 11 67 0.0 4.8 0.10 0.69 0.66 92 1006.4
20260505184552 11 60 1.6 4.8 0.10 0.69 0.66 92 1006.3
20260505184052 11 62 1.6 3.2 0.08 0.66 0.64 92 1006.4
20260505183553 11 100 0.0 3.2 0.05 0.64 0.61 92 1006.4
20260505183057 11 0 0.0 3.2 0.05 0.64 0.61 91 1006.4
20260505182554 11 49 0.0 3.2 0.05 0.61 0.58 91 1006.4
20260505182055 11 0 0.0 3.2 0.05 0.61 0.58 91 1006.4
20260505181556 12 54 0.0 1.6 0.03 0.58 0.56 91 1006.5
20260505181053 12 0 0.0 1.6 0.03 0.58 0.56 91 1006.4
20260505180552 12 0 0.0 1.6 0.05 0.58 0.56 91 1006.4
20260505180057 11 0 0.0 1.6 0.05 0.58 0.56 91 1006.5
20260505175552 11 0 0.0 1.6 0.05 0.58 0.56 91 1006.5
20260505175052 11 0 0.0 1.6 0.05 0.58 0.56 91 1006.5
20260505174553 11 0 0.0 3.2 0.08 0.58 0.56 91 1006.5
20260505174052 12 0 0.0 3.2 0.08 0.58 0.56 91 1006.5
20260505173553 12 0 0.0 3.2 0.08 0.58 0.56 91 1006.5
20260505173112 12 0 0.0 1.6 0.08 0.58 0.56 90 1006.6
20260505172552 12 0 0.0 3.2 0.08 0.56 0.53 91 1006.6
20260505172052 12 0 0.0 3.2 0.08 0.56 0.53 90 1006.6
20260505171620 12 271 0.0 3.2 0.08 0.56 0.53 90 1006.6
20260505171052 12 273 0.0 3.2 0.08 0.56 0.51 90 1006.6
20260505170551 12 270 1.6 3.2 0.08 0.56 0.51 90 1006.6
20260505170055 12 268 0.0 3.2 0.08 0.56 0.51 90 1006.7
20260505165552 12 0 0.0 3.2 0.08 0.58 0.48 90 1006.6
20260505165053 12 303 0.0 3.2 0.08 0.58 0.48 90 1006.7
20260505164601 12 299 0.0 1.6 0.08 0.56 0.46 90 1006.7
20260505164050 12 0 0.0 3.2 0.08 0.56 0.46 90 1006.7
20260505163550 12 0 0.0 3.2 0.08 0.56 0.46 90 1006.6
20260505163055 12 0 0.0 3.2 0.08 0.56 0.46 90 1006.7
20260505162549 12 0 0.0 3.2 0.08 0.53 0.43 90 1006.7
20260505162050 12 0 0.0 4.8 0.08 0.53 0.43 90 1006.7
20260505161556 12 0 0.0 4.8 0.08 0.53 0.43 90 1006.7
20260505161050 12 234 0.0 4.8 0.08 0.51 0.41 90 1006.7
20260505160554 12 231 1.6 4.8 0.08 0.51 0.41 90 1006.7
20260505153056 12 245 4.8 9.7 0.08 0.53 0.36 89 1006.9
20260505152549 12 236 3.2 9.7 0.05 0.51 0.36 89 1007.0
20260505152049 12 228 3.2 12.9 0.08 0.51 0.36 89 1006.9
20260505151600 12 249 4.8 12.9 0.08 0.51 0.36 89 1007.0
20260505151050 12 234 6.4 12.9 0.08 0.48 0.33 88 1007.0
20260505150548 12 248 4.8 12.9 0.08 0.48 0.33 88 1007.0
20260505150109 12 207 6.4 14.5 0.10 0.48 0.33 88 1007.1
20260505140548 13 211 1.6 6.4 0.18 0.48 0.23 89 1007.2
20260505124556 14 0 0.0 1.6 0.00 0.30 0.00 83 1007.5
20260505124054 14 0 0.0 1.6 0.00 0.30 0.00 83 1007.4
20260505123553 14 56 0.0 1.6 0.00 0.30 0.00 83 1007.5
20260505123100 14 48 0.0 3.2 0.00 0.30 0.00 83 1007.3
20260505122550 14 0 0.0 3.2 0.00 0.30 0.00 82 1007.4
20260505122050 14 0 0.0 4.8 0.00 0.30 0.00 81 1007.3
20260505121624 14 0 0.0 4.8 0.00 0.30 0.00 81 1007.4
20260505121051 15 0 1.6 3.2 0.00 0.30 0.00 81 1007.4
20260505120550 15 0 0.0 3.2 0.00 0.30 0.00 81 1007.6
20260505120050 14 103 0.0 3.2 0.00 0.30 0.00 80 1007.6
20260505115549 15 5 0.0 1.6 0.00 0.41 0.00 81 1007.7
20260505115048 14 0 0.0 4.8 0.00 0.41 0.00 81 1007.7
20260505114551 14 0 0.0 4.8 0.00 0.41 0.00 80 1007.7
20260505114048 14 0 1.6 6.4 0.00 0.41 0.00 81 1007.8
20260505113550 14 23 1.6 6.4 0.00 0.41 0.00 82 1007.9
20260505113057 15 73 3.2 9.7 0.00 0.41 0.00 82 1008.0
20260505112550 15 23 3.2 9.7 0.00 0.41 0.00 82 1007.9
20260505112050 15 17 3.2 8.0 0.00 0.41 0.00 81 1007.9
20260505111554 15 0 1.6 8.0 0.00 0.41 0.00 82 1008.0
20260505111050 15 325 1.6 6.4 0.00 0.41 0.00 83 1007.9
20260505110547 15 0 1.6 9.7 0.00 0.41 0.00 81 1008.1
20260505102052 14 360 0.0 6.4 0.00 0.66 0.00 83 1008.4
20260505101557 14 330 0.0 6.4 0.00 0.66 0.00 84 1008.4
20260505101052 14 44 1.6 4.8 0.00 0.66 0.00 84 1008.4
20260505100554 13 0 0.0 3.2 0.00 0.66 0.00 85 1008.5
20260505100128 13 0 0.0 4.8 0.00 0.66 0.00 84 1008.5
20260505095556 13 0 0.0 9.7 0.00 0.66 0.00 84 1008.5
20260505095052 13 0 1.6 9.7 0.00 0.66 0.00 84 1008.5
20260505094554 14 340 3.2 9.7 0.00 0.66 0.00 83 1008.4
20260505094052 14 0 1.6 3.2 0.00 0.66 0.00 84 1008.4
20260505093552 14 240 0.0 3.2 0.00 0.66 0.00 82 1008.3
20260505093054 13 164 0.0 3.2 0.00 0.66 0.00 83 1008.3
20260505092554 13 0 0.0 4.8 0.00 0.66 0.00 82 1008.3
20260505092053 14 0 0.0 4.8 0.00 0.66 0.00 82 1008.4
20260505091612 14 258 1.6 4.8 0.00 0.66 0.00 82 1008.4
20260505091051 14 0 1.6 4.8 0.00 0.66 0.00 82 1008.5
20260505090551 14 0 0.0 4.8 0.00 0.66 0.00 81 1008.5
20260505090100 14 0 0.0 8.0 0.00 0.66 0.00 83 1008.5
20260505085552 14 0 1.6 8.0 0.00 0.66 0.00 83 1008.5
20260505085052 14 188 1.6 8.0 0.00 0.66 0.00 82 1008.6
20260505084553 14 0 1.6 6.4 0.00 0.66 0.00 82 1008.6
20260505084053 14 229 1.6 6.4 0.00 0.66 0.00 82 1008.7
20260505083551 13 302 0.0 6.4 0.00 0.66 0.00 83 1008.6
20260505083054 13 115 0.0 6.4 0.00 0.66 0.00 85 1008.6
20260505082548 13 72 1.6 6.4 0.00 0.66 0.00 86 1008.6
20260505082051 13 238 0.0 6.4 0.00 0.66 0.00 86 1008.7
20260505081554 13 133 0.0 3.2 0.00 0.66 0.00 87 1008.8
20260505081052 13 260 0.0 3.2 0.00 0.66 0.00 87 1008.8
20260505080554 13 0 0.0 4.8 0.00 0.66 0.00 87 1008.9
20260505080054 13 0 0.0 6.4 0.00 0.66 0.00 89 1008.9
20260505075552 13 49 0.0 6.4 0.00 0.66 0.00 89 1008.9
20260505075053 13 0 0.0 6.4 0.00 0.66 0.00 89 1009.0
20260505074553 12 171 1.6 6.4 0.00 0.66 0.00 90 1009.0
20260505074054 12 151 0.0 4.8 0.00 0.66 0.00 91 1009.0
20260505073552 12 182 0.0 8.0 0.00 0.66 0.00 91 1009.0
20260505073059 12 147 1.6 8.0 0.00 0.66 0.00 92 1009.0
20260505072551 12 131 1.6 8.0 0.00 0.66 0.00 92 1009.1
20260505072054 12 159 1.6 6.4 0.00 0.66 0.00 92 1009.1
20260505071556 12 133 3.2 6.4 0.00 0.66 0.00 93 1009.1
20260505071051 12 53 1.6 8.0 0.00 0.66 0.00 93 1009.0
20260505070551 12 92 0.0 8.0 0.00 0.66 0.00 93 1009.1
20260505070059 12 0 1.6 8.0 0.00 0.66 0.00 93 1009.3
20260505065548 12 175 3.2 8.0 0.00 0.66 0.00 94 1009.1
20260505065052 11 155 4.8 8.0 0.00 0.66 0.00 94 1009.2
20260505064609 11 0 0.0 4.8 0.00 0.66 0.00 94 1009.3
20260505064052 11 148 1.6 4.8 0.00 0.66 0.00 94 1009.3
20260505063553 11 72 1.6 4.8 0.00 0.66 0.00 94 1009.2
20260505063054 11 84 1.6 4.8 0.00 0.66 0.00 94 1009.1
20260505062552 11 58 1.6 4.8 0.00 0.66 0.00 94 1009.1
20260505062051 11 63 0.0 4.8 0.00 0.66 0.00 94 1009.3
20260505061556 11 60 1.6 4.8 0.00 0.66 0.00 94 1009.2
20260505061051 11 64 0.0 4.8 0.00 0.66 0.00 94 1009.2
20260505060554 11 86 1.6 4.8 0.00 0.66 0.00 94 1009.3
20260505060058 11 54 0.0 3.2 0.00 0.66 0.00 94 1009.3